Richlands, VA

11:54 AM EDT on July 20, 2017 (GMT -0400)
Tazewell County

Weather History for KJFZ - January, 2012

Change the Weather History Date:

Saturday, January 14, 2012

  Actual Average (KBLF) Record (KBLF)
Temperature  
Mean Temperature 22 °F -  
Max Temperature 26 °F 39 °F 65 °F (2007)
Min Temperature 19 °F 22 °F 3 °F (1963)
Degree Days  
Heating Degree Days 42    
Moisture  
Dew Point 20 °F    
Average Humidity 89    
Maximum Humidity 100    
Minimum Humidity 59    
Precipitation  
Precipitation 0.00 in - - ()
Sea Level Pressure  
Sea Level Pressure 30.03 in    
Wind  
Wind Speed 7 mph (WSW)    
Max Wind Speed 15 mph    
Max Gust Speed -    
Visibility 7 miles    
Events      
Averages and records for this station are not official NWS values.
T = Trace of Precipitation, MM = Missing Value Source: NWS Daily Summary

Daily Weather History Graph

Daily Weather History Graph

Search for Another Location

Airport or City:

Trip Planner

Search our weather history database for the weather conditions in past years. The results will help you decide how hot, cold, wet, or windy it might be!

Date:

Astronomy

Jan. 14, 2012 Rise Set
Actual Time 7:40 AM EST 5:32 PM EST
Civil Twilight 7:11 AM EST 6:00 PM EST
Nautical Twilight 6:39 AM EST 6:32 PM EST
Astronomical Twilight 6:08 AM EST 7:04 PM EST
Moon 11:41 PM EST (1/14) 10:34 AM EST (1/14)
Length of Visible Light 10h 49m
Length of Day
9h 52m
Waning Gibbous, 69% of the Moon is Illuminated
Jan 14
Waning Gibbous
Jan 16
Last Quarter
Jan 23
New
Jan 30
First Quarter
Feb 7
Full

Hourly Weather History & Observations

Time (EST) Temp. Windchill Dew Point Humidity Pressure Visibility Wind Dir Wind Speed Gust Speed Precip Events Conditions
12:15 AM 19.4 °F 5.5 °F 17.6 °F 93% 29.98 in 10.0 mi West 15.0 mph - N/A   Unknown
12:35 AM 19.4 °F 6.0 °F 15.8 °F 86% 30.00 in 10.0 mi West 13.8 mph - N/A   Unknown
12:55 AM 19.4 °F 10.4 °F 15.8 °F 86% 29.99 in 10.0 mi Variable 6.9 mph - N/A   Unknown
1:15 AM 19.4 °F 11.5 °F 15.8 °F 86% 30.00 in 10.0 mi Variable 5.8 mph - N/A   Unknown
1:35 AM 19.4 °F 9.5 °F 15.8 °F 86% 30.00 in 6.0 mi West 8.1 mph - N/A   Unknown
1:55 AM 19.4 °F 11.5 °F 17.6 °F 93% 29.99 in 5.0 mi WSW 5.8 mph - N/A   Unknown
2:15 AM 19.4 °F 14.3 °F 17.6 °F 93% 30.00 in 5.0 mi Variable 3.5 mph - N/A   Unknown
2:35 AM 19.4 °F 8.6 °F 17.6 °F 93% 30.01 in 5.0 mi WSW 9.2 mph - N/A   Unknown
2:55 AM 19.4 °F 11.5 °F 17.6 °F 93% 30.00 in 5.0 mi Variable 5.8 mph - N/A   Unknown
3:15 AM 19.4 °F 14.3 °F 19.4 °F 100% 30.01 in 6.0 mi WSW 3.5 mph - N/A   Unknown
3:35 AM 19.4 °F 9.5 °F 19.4 °F 100% 30.02 in 7.0 mi SW 8.1 mph - N/A   Unknown
3:55 AM 19.4 °F 10.4 °F 19.4 °F 100% 30.00 in 7.0 mi Variable 6.9 mph - N/A   Unknown
4:15 AM 19.4 °F 8.6 °F 19.4 °F 100% 30.01 in 7.0 mi WSW 9.2 mph - N/A   Unknown
4:35 AM 19.4 °F 10.4 °F 19.4 °F 100% 30.01 in 8.0 mi West 6.9 mph - N/A   Unknown
4:55 AM 19.4 °F 9.5 °F 19.4 °F 100% 30.00 in 8.0 mi WSW 8.1 mph - N/A   Unknown
5:15 AM 19.4 °F 10.4 °F 19.4 °F 100% 30.02 in 8.0 mi WSW 6.9 mph - N/A   Unknown
5:35 AM 19.4 °F 10.4 °F 19.4 °F 100% 30.02 in 7.0 mi WSW 6.9 mph - N/A   Unknown
5:55 AM 19.4 °F 10.4 °F 19.4 °F 100% 30.01 in 8.0 mi Variable 6.9 mph - N/A   Unknown
6:15 AM 19.4 °F 9.5 °F 19.4 °F 100% 30.04 in 7.0 mi WSW 8.1 mph - N/A   Unknown
6:35 AM 19.4 °F 8.6 °F 19.4 °F 100% 30.04 in 10.0 mi WSW 9.2 mph - N/A   Unknown
6:55 AM 19.4 °F 10.4 °F 19.4 °F 100% 30.03 in 8.0 mi WSW 6.9 mph - N/A   Unknown
7:15 AM 19.4 °F 10.4 °F 19.4 °F 100% 30.04 in 8.0 mi WSW 6.9 mph - N/A   Unknown
7:35 AM 19.4 °F 11.5 °F 19.4 °F 100% 30.04 in 10.0 mi Variable 5.8 mph - N/A   Unknown
7:55 AM 19.4 °F 10.4 °F 17.6 °F 93% 30.05 in 8.0 mi WSW 6.9 mph - N/A   Unknown
8:15 AM 19.4 °F 12.8 °F 17.6 °F 93% 30.06 in 4.0 mi Variable 4.6 mph - N/A   Unknown
8:35 AM 19.4 °F 14.3 °F 17.6 °F 93% 30.06 in 7.0 mi Variable 3.5 mph - N/A   Unknown
8:55 AM 19.4 °F - 17.6 °F 93% 30.07 in 10.0 mi Calm Calm - N/A   Unknown
9:15 AM 19.4 °F 9.5 °F 17.6 °F 93% 30.08 in 10.0 mi WSW 8.1 mph - N/A   Unknown
9:35 AM 21.2 °F 12.6 °F 17.6 °F 86% 30.08 in 10.0 mi Variable 6.9 mph - N/A   Unknown
9:55 AM 21.2 °F 13.6 °F 17.6 °F 86% 30.08 in 10.0 mi Variable 5.8 mph - N/A   Unknown
10:15 AM 23.0 °F 13.1 °F 17.6 °F 80% 30.08 in 10.0 mi SW 9.2 mph - N/A   Unknown
10:35 AM 23.0 °F 15.8 °F 17.6 °F 80% 30.09 in 10.0 mi Variable 5.8 mph - N/A   Unknown
10:55 AM 24.8 °F 17.9 °F 17.6 °F 74% 30.08 in 10.0 mi West 5.8 mph - N/A   Unknown
11:15 AM 24.8 °F 16.9 °F 17.6 °F 74% 30.06 in 10.0 mi Variable 6.9 mph - N/A   Unknown
11:35 AM 24.8 °F - 15.8 °F 69% 30.05 in 10.0 mi Calm Calm - N/A   Unknown
11:55 AM 26.6 °F 18.2 °F 17.6 °F 69% 30.04 in 10.0 mi West 8.1 mph - N/A   Unknown
12:35 PM 26.6 °F 16.2 °F 14.0 °F 59% 30.02 in 10.0 mi West 11.5 mph - N/A   Unknown
12:55 PM 26.6 °F 20.0 °F 14.0 °F 59% 30.02 in 10.0 mi Variable 5.8 mph - N/A   Unknown
1:15 PM 26.6 °F 19.1 °F 15.8 °F 64% 30.02 in 10.0 mi West 6.9 mph - N/A   Unknown
1:35 PM 26.6 °F 20.0 °F 15.8 °F 64% 30.01 in 10.0 mi Variable 5.8 mph - N/A   Unknown
1:55 PM 26.6 °F 18.2 °F 15.8 °F 64% 30.01 in 10.0 mi SW 8.1 mph - N/A   Unknown
2:15 PM 24.8 °F 16.1 °F 19.4 °F 80% 30.02 in 5.0 mi SW 8.1 mph - N/A   Unknown
2:35 PM 24.8 °F 15.3 °F 19.4 °F 80% 30.00 in 4.0 mi SW 9.2 mph - N/A   Unknown
2:55 PM 24.8 °F 15.3 °F 21.2 °F 86% 30.01 in 9.0 mi SW 9.2 mph - N/A   Unknown
3:15 PM 24.8 °F 19.1 °F 23.0 °F 93% 30.02 in 3.0 mi Variable 4.6 mph - N/A   Unknown
3:35 PM 26.6 °F 18.2 °F 21.2 °F 80% 30.01 in 10.0 mi WSW 8.1 mph - N/A   Unknown
3:55 PM 26.6 °F 19.1 °F 21.2 °F 80% 30.02 in 10.0 mi SW 6.9 mph - N/A   Unknown
4:15 PM 26.6 °F 20.0 °F 21.2 °F 80% 30.00 in 10.0 mi WSW 5.8 mph - N/A   Unknown
4:35 PM 26.6 °F 22.6 °F 21.2 °F 80% 30.01 in 10.0 mi SW 3.5 mph - N/A   Unknown
5:15 PM 26.6 °F 22.6 °F 19.4 °F 74% 30.00 in 10.0 mi Variable 3.5 mph - N/A   Unknown
5:35 PM 26.6 °F 22.6 °F 19.4 °F 74% 30.00 in 10.0 mi WSW 3.5 mph - N/A   Unknown
5:55 PM 26.6 °F 22.6 °F 19.4 °F 74% 30.00 in 10.0 mi WSW 3.5 mph - N/A   Unknown
6:15 PM 26.6 °F 21.2 °F 21.2 °F 80% 30.00 in 6.0 mi Variable 4.6 mph - N/A   Unknown
6:35 PM 24.8 °F 19.1 °F 24.8 °F 100% 30.00 in 2.5 mi Variable 4.6 mph - N/A   Unknown
6:55 PM 24.8 °F 17.9 °F 24.8 °F 100% 30.01 in 2.0 mi WSW 5.8 mph - N/A   Unknown
7:15 PM 24.8 °F 16.9 °F 24.8 °F 100% 30.03 in 1.2 mi WSW 6.9 mph - N/A   Unknown
7:35 PM 24.8 °F 20.5 °F 24.8 °F 100% 30.04 in 1.5 mi WSW 3.5 mph - N/A   Unknown
7:55 PM 24.8 °F 19.1 °F 24.8 °F 100% 30.04 in 0.8 mi West 4.6 mph - N/A   Unknown
8:15 PM 24.8 °F 20.5 °F 24.8 °F 100% 30.04 in 1.2 mi WSW 3.5 mph - N/A   Unknown
8:35 PM 24.8 °F - 24.8 °F 100% 30.04 in 1.2 mi Calm Calm - N/A   Unknown
8:55 PM 24.8 °F - 24.8 °F 100% 30.04 in 1.8 mi Calm Calm - N/A   Unknown
9:15 PM 24.8 °F - 24.8 °F 100% 30.04 in 2.0 mi Calm Calm - N/A   Unknown
9:55 PM 24.8 °F - 24.8 °F 100% 30.04 in 2.5 mi Calm Calm - N/A   Unknown
10:15 PM 24.8 °F - 24.8 °F 100% 30.03 in 4.0 mi Calm Calm - N/A   Unknown
10:35 PM 24.8 °F - 24.8 °F 100% 30.03 in 2.5 mi Calm Calm - N/A   Unknown
10:55 PM 24.8 °F - 24.8 °F 100% 30.03 in 4.0 mi Calm Calm - N/A   Unknown
11:55 PM 24.8 °F - 24.8 °F 100% 30.03 in 10.0 mi Calm Calm - N/A   Unknown